Tracking 31011 objects as of 13-Jul-2025
HD Live streaming from Space Station
objects crossing your sky now

CZ-6A DEB

Track CZ-6A DEB now!
10-day predictions


NORAD ID: 54609
Int'l Code: 2022-151NK
Perigee: 733.1 km
Apogee: 786.8 km
Inclination: 98.7 °
Period: 99.9 minutes
Semi major axis: 7130 km
RCS: Unknown
Launch date: November 11, 2022
Source: People's Republic of China (PRC)
Launch site: Taiyaun Space Center, China (TSC)

Note: This is SATELLITE DEBRIS
Your satellite tracking list
Your tracking list is empty




NASA's NSSDC Master Catalog

Two Line Element Set (TLE):
1 54609U 22151NK  25193.30286624  .00003368  00000-0  10377-2 0  9996
2 54609  98.7404 222.9971 0037609 217.7418 142.1131 14.41722775138516
Source of the keplerian elements: AFSPC